Latest Coastal Weather Observations for South Johnstone

IDQ60701

Issued at 3:12 pm EST Tuesday 22 August 2017 (issued every 10 minutes, with the page automatically refreshed every 10 minutes)

About coastal observations | Map of coastal stations | Coastal observations for QLD | Marine services | Other Formats
Station Details ID: 032037 Name: SOUTH JOHNSTONE EXP STN Lat: -17.61 Lon: 146.00 Height: 18.3 m
Data from the previous 72 hours. | See also: Recent months at South Johnstone
Date/Time
EST
Temp
°C
Wind Pressure Rain since
9am
mm
Weather Cloud Vis
km
Sea
Height
m
Swell
Dir  Spd
kts
Gust
kts
hPa Trend Height
m
Period
s
Dir
22/03:00pm 26.0 ENE 6 10 1015.8 - 0.0 - - - - - - -
22/02:30pm 26.4 ENE 6 8 1016.0 - 0.0 - - - - - - -
22/02:00pm 26.5 ENE 7 12 1016.1 - 0.0 - - - - - - -
22/01:30pm 25.9 ENE 6 10 1016.5 - 0.0 - - - - - - -
22/01:00pm 26.2 E 7 10 1016.7 - 0.0 - - - - - - -
22/12:30pm 26.4 SE 3 6 1017.1 - 0.0 - - - - - - -
22/12:00pm 26.1 SSE 5 9 1017.6 - 0.0 - - - - - - -
22/11:30am 25.9 ENE 4 7 1018.3 - 0.0 - - - - - - -
22/11:00am 25.8 S 2 4 1018.7 - 0.0 - - - - - - -
22/10:30am 25.0 ESE 2 5 1019.0 - 0.0 - - - - - - -
22/10:00am 24.4 CALM 0 2 1019.2 - 0.0 - - - - - - -
22/09:30am 22.4 SE 1 4 1019.3 - 0.0 - - - - - - -
22/09:00am 21.0 CALM 0 0 1019.2 - 0.0 - - - - - - -
22/08:30am 18.2 WSW 1 4 1019.1 - 0.0 - - - - - - -
22/08:00am 15.9 W 3 4 1019.0 - 0.0 - - - - - - -
22/07:30am 13.9 W 3 6 1018.9 - 0.0 - - - - - - -
22/07:00am 13.2 W 1 5 1018.7 - 0.0 - - - - - - -
22/06:30am 12.7 WSW 1 4 1018.5 - 0.0 - - - - - - -
22/06:00am 12.9 WSW 3 4 1018.3 - 0.0 - - - - - - -
22/05:30am 12.8 CALM 0 0 1018.1 - 0.0 - - - - - - -
22/05:00am 13.0 CALM 0 3 1017.9 - 0.0 - - - - - - -
22/04:30am 13.0 W 4 5 1017.9 - 0.0 - - - - - - -
22/04:00am 13.0 W 4 6 1017.9 - 0.0 - - - - - - -
22/03:30am 13.2 W 3 5 1017.9 - 0.0 - - - - - - -
22/03:00am 13.3 W 2 4 1017.8 - 0.0 - - - - - - -
22/02:30am 13.3 WNW 3 5 1018.0 - 0.0 - - - - - - -
22/02:00am 13.4 WNW 4 5 1018.3 - 0.0 - - - - - - -
22/01:30am 13.8 W 4 6 1018.5 - 0.0 - - - - - - -
22/01:00am 13.7 WNW 4 5 1018.9 - 0.0 - - - - - - -
22/12:30am 13.8 WNW 3 5 1019.4 - 0.0 - - - - - - -
22/12:00am 14.0 WNW 3 5 1019.5 - 0.0 - - - - - - -
 
Date/Time
EST
Temp
°C
Wind Pressure Rain since
9am
mm
Weather Cloud Vis
km
Sea
Height
m
Swell
Dir  Spd
kts
Gust
kts
hPa Trend Height
m
Period
s
Dir
21/11:30pm 14.1 W 3 4 1019.7 - 0.0 - - - - - - -
21/11:00pm 14.3 W 2 7 1019.9 - 0.0 - - - - - - -
21/10:30pm 14.6 CALM 0 0 1019.9 - 0.0 - - - - - - -
21/10:00pm 14.9 CALM 0 0 1020.0 - 0.0 - - - - - - -
21/09:30pm 15.4 W 2 6 1019.8 - 0.0 - - - - - - -
21/09:00pm 16.0 WNW 3 5 1019.7 - 0.0 - - - - - - -
21/08:30pm 16.1 W 3 5 1019.5 - 0.0 - - - - - - -
21/08:00pm 16.5 W 5 7 1019.1 - 0.0 - - - - - - -
21/07:30pm 17.4 WSW 3 6 1018.7 - 0.0 - - - - - - -
21/07:00pm 17.6 CALM 0 0 1018.4 - 0.0 - - - - - - -
21/06:30pm 18.9 CALM 0 0 1018.0 - 0.0 - - - - - - -
21/06:00pm 20.0 CALM 0 0 1017.5 - 0.0 - - - - - - -
21/05:30pm 21.4 CALM 0 0 1017.3 - 0.0 - - - - - - -
21/05:00pm 22.2 S 2 5 1017.1 - 0.0 - - - - - - -
21/04:30pm 22.7 ESE 6 8 1016.9 - 0.0 - - - - - - -
21/04:00pm 23.2 SE 7 11 1016.8 - 0.0 - - - - - - -
21/03:30pm 23.5 ESE 7 12 1016.7 - 0.0 - - - - - - -
21/03:00pm 23.9 SSE 7 12 1016.8 - 0.0 - - - - - - -
21/02:30pm 24.1 SSE 7 13 1017.0 - 0.0 - - - - - - -
21/02:00pm 24.1 SSE 5 8 1017.3 - 0.0 - - - - - - -
21/01:30pm 23.8 ESE 7 10 1017.5 - 0.0 - - - - - - -
21/01:00pm 24.1 ESE 6 10 1017.8 - 0.0 - - - - - - -
21/12:30pm 22.9 SSE 7 12 1018.1 - 0.0 - - - - - - -
21/12:00pm 23.1 SE 7 12 1018.6 - 0.0 - - - - - - -
21/11:30am 22.8 SE 6 9 1019.0 - 0.0 - - - - - - -
21/11:00am 23.2 ESE 6 11 1019.5 - 0.0 - - - - - - -
21/10:30am 22.7 ESE 6 9 1019.9 - 0.0 - - - - - - -
21/10:00am 21.8 S 4 6 1020.0 - 0.0 - - - - - - -
21/09:30am 21.0 CALM 0 1 1019.8 - 0.0 - - - - - - -
21/09:00am 19.0 CALM 0 0 1019.5 - 0.0 - - - - - - -
21/08:30am 18.4 WSW 2 27 1019.3 - 0.0 - - - - - - -
21/08:00am 18.6 W 2 5 1018.9 - 0.0 - - - - - - -
21/07:30am 16.6 W 2 5 1018.6 - 0.0 - - - - - - -
21/07:00am 16.1 WNW 3 4 1018.4 - 0.0 - - - - - - -
21/06:30am 16.0 W 4 5 1018.1 - 0.0 - - - - - - -
21/06:00am 16.1 WNW 3 5 1017.4 - 0.0 - - - - - - -
21/05:30am 16.3 WNW 2 5 1017.3 - 0.0 - - - - - - -
21/05:00am 16.4 W 2 5 1017.2 - 0.0 - - - - - - -
21/04:30am 16.2 WNW 3 5 1016.9 - 0.0 - - - - - - -
21/04:00am 16.1 W 4 7 1017.0 - 0.0 - - - - - - -
21/03:30am 16.3 W 5 8 1017.0 - 0.0 - - - - - - -
21/03:00am 16.4 CALM 0 4 1017.0 - 0.0 - - - - - - -
21/02:30am 16.3 CALM 0 1 1017.1 - 0.0 - - - - - - -
21/02:00am 16.7 W 2 5 1017.4 - 0.0 - - - - - - -
21/01:30am 16.7 W 2 4 1017.6 - 0.0 - - - - - - -
21/01:00am 17.1 W 4 5 1017.9 - 0.0 - - - - - - -
21/12:30am 17.2 W 3 5 1018.1 - 0.0 - - - - - - -
21/12:00am 17.6 W 3 5 1018.1 - 0.0 - - - - - - -
 
Date/Time
EST
Temp
°C
Wind Pressure Rain since
9am
mm
Weather Cloud Vis
km
Sea
Height
m
Swell
Dir  Spd
kts
Gust
kts
hPa Trend Height
m
Period
s
Dir
20/11:30pm 17.8 W 5 7 1018.3 - 0.0 - - - - - - -
20/11:00pm 17.9 WSW 3 5 1018.4 - 0.0 - - - - - - -
20/10:30pm 18.2 W 3 5 1018.3 - 0.0 - - - - - - -
20/10:00pm 18.4 W 4 5 1018.1 - 0.0 - - - - - - -
20/09:30pm 18.6 W 3 5 1018.2 - 0.0 - - - - - - -
20/09:00pm 19.2 CALM 0 0 1018.0 - 0.0 - - - - - - -
20/08:30pm 19.5 CALM 0 0 1018.1 - 0.0 - - - - - - -
20/08:00pm 20.2 SSE 2 5 1017.7 - 0.0 - - - - - - -
20/07:30pm 19.3 CALM 0 0 1017.4 - 0.0 - - - - - - -
20/07:00pm 19.5 CALM 0 0 1017.2 - 0.0 - - - - - - -
20/06:30pm 20.1 CALM 0 0 1017.0 - 0.0 - - - - - - -
20/06:00pm 20.7 SSE 4 5 1016.7 - 0.0 - - - - - - -
20/05:30pm 21.8 SE 7 10 1016.5 - 0.0 - - - - - - -
20/05:00pm 22.6 ESE 7 11 1016.2 - 0.0 - - - - - - -
20/04:30pm 23.0 SE 8 14 1016.1 - 0.0 - - - - - - -
20/04:00pm 23.6 SE 8 13 1015.9 - 0.0 - - - - - - -
20/03:30pm 23.9 SE 9 15 1015.7 - 0.0 - - - - - - -
20/03:00pm 24.7 ESE 8 13 1015.7 - 0.0 - - - - - - -
20/02:30pm 25.0 SE 9 15 1016.1 - 0.0 - - - - - - -
20/02:00pm 24.6 SE 9 14 1016.3 - 0.0 - - - - - - -
20/01:30pm 25.2 ESE 8 16 1016.6 - 0.0 - - - - - - -
20/01:00pm 25.6 ESE 8 13 1017.0 - 0.0 - - - - - - -
20/12:30pm 25.4 ESE 7 11 1017.4 - 0.0 - - - - - - -
20/12:00pm 24.9 SE 7 10 1017.8 - 0.0 - - - - - - -
20/11:30am 25.1 ESE 8 13 1018.2 - 0.0 - - - - - - -
20/11:00am 24.9 SE 7 12 1018.5 - 0.0 - - - - - - -
20/10:30am 24.6 S 6 11 1018.9 - 0.0 - - - - - - -
20/10:00am 23.6 S 7 12 1019.1 - 0.0 - - - - - - -
20/09:30am 24.0 S 6 9 1019.1 - 0.0 - - - - - - -
20/09:00am 22.7 SSW 4 6 1018.8 - 0.2 - - - - - - -
20/08:30am 20.4 WSW 3 5 1018.8 - 0.2 - - - - - - -
20/08:00am 18.8 N 1 5 1018.6 - 0.2 - - - - - - -
20/07:30am 17.5 CALM 0 2 1018.3 - 0.2 - - - - - - -
20/07:00am 16.5 W 3 7 1018.0 - 0.2 - - - - - - -
20/06:30am 16.6 W 3 6 1017.7 - 0.0 - - - - - - -
20/06:00am 16.6 WNW 1 5 1017.4 - 0.0 - - - - - - -
20/05:30am 16.5 W 1 4 1017.4 - 0.0 - - - - - - -
20/05:00am 16.8 W 3 6 1017.1 - 0.0 - - - - - - -
20/04:30am 16.7 W 4 7 1016.9 - 0.0 - - - - - - -
20/04:00am 16.8 W 3 7 1016.9 - 0.0 - - - - - - -
20/03:30am 16.8 CALM 0 5 1017.1 - 0.0 - - - - - - -
20/03:00am 17.3 WNW 2 5 1016.9 - 0.0 - - - - - - -
20/02:30am 17.5 W 3 6 1017.1 - 0.0 - - - - - - -
20/02:00am 17.8 WSW 5 6 1017.3 - 0.0 - - - - - - -
20/01:30am 18.0 W 1 5 1017.4 - 0.0 - - - - - - -
20/01:00am 18.4 W 4 7 1017.6 - 0.0 - - - - - - -
20/12:30am 18.4 WSW 5 7 1017.6 - 0.0 - - - - - - -
20/12:00am 18.6 WSW 4 6 1017.7 - 0.0 - - - - - - -
 
Date/Time
EST
Temp
°C
Wind Pressure Rain since
9am
mm
Weather Cloud Vis
km
Sea
Height
m
Swell
Dir  Spd
kts
Gust
kts
hPa Trend Height
m
Period
s
Dir
19/11:30pm 18.8 CALM 0 3 1017.9 - 0.0 - - - - - - -
19/11:00pm 19.0 W 2 5 1018.1 - 0.0 - - - - - - -
19/10:30pm 19.1 CALM 0 1 1018.2 - 0.0 - - - - - - -
19/10:00pm 19.4 CALM 0 0 1018.2 - 0.0 - - - - - - -
19/09:30pm 19.9 CALM 0 0 1018.1 - 0.0 - - - - - - -
19/09:00pm 20.4 CALM 0 0 1017.9 - 0.0 - - - - - - -
19/08:30pm 20.8 CALM 0 0 1017.7 - 0.0 - - - - - - -
19/08:00pm 21.0 CALM 0 0 1017.3 - 0.0 - - - - - - -
19/07:30pm 22.4 CALM 0 1 1016.8 - 0.0 - - - - - - -
19/07:00pm 22.5 CALM 0 0 1016.5 - 0.0 - - - - - - -
19/06:30pm 22.5 CALM 0 0 1016.1 - 0.0 - - - - - - -
19/06:00pm 23.5 SE 4 6 1015.7 - 0.0 - - - - - - -
19/05:30pm 24.1 ESE 4 7 1015.5 - 0.0 - - - - - - -
19/05:00pm 24.7 ESE 6 10 1015.3 - 0.0 - - - - - - -
19/04:30pm 25.5 SE 7 11 1015.1 - 0.0 - - - - - - -
19/04:00pm 26.4 ESE 8 13 1014.9 - 0.0 - - - - - - -
19/03:30pm 26.5 ESE 9 14 1014.9 - 0.0 - - - - - - -

Other Formats:

Comma delimited format used in spreadsheet applications
http://www.bom.gov.au/fwo/IDQ60701/IDQ60701.95292.axf

JavaScript Object Notation format (JSON) in row-major order
http://www.bom.gov.au/fwo/IDQ60701/IDQ60701.95292.json